Home   Weather   Wolfenbüttel   Past weeks

Flag for Germany Past Weather in Wolfenbüttel, Lower Saxony, Germany — Yesterday and Last 2 Weeks

41 °F

Passing clouds.

Feels Like: 41 °F
Forecast: 40 / 47 °F
Wind: No wind

Location: Braunschweig Wolfsburg

Current Time: Oct 20, 2016 at 9:47:59 PM

Latest Report: Oct 20, 2016 at 8:50 PM

Visibility: 4 mi

Pressure: 29.92 "Hg

Humidity: 93%

Dew Point: 39 °F

Location of WolfenbüttelLocation

Past Weather in Wolfenbüttel — Graph


Wolfenbüttel Temperature Yesterday

Maximum temperature yesterday: 50 °F (at 12:50 PM)
Minimum temperature yesterday: 43 °F (at 6:50 AM)
Average temperature yesterday: 47 °F

High & Low Weather Summary for the Past Weeks

High64 °F (Oct 16, 1:50 PM)100% (Oct 7, 6:50 AM)30.42 "Hg (Oct 7, 6:50 AM)
Low39 °F (Oct 9, 7:50 AM)56% (Oct 16, 1:50 PM)29.80 "Hg (Oct 19, 7:50 PM)
Average49 °F86%30.09 "Hg
* Reported Oct 5 8:20 PM — Oct 20 8:20 PM, Wolfenbüttel, Weather by CustomWeather, © 2016

Note: Actual official high and low records may vary slightly from our data, if they occured in-between our weather recording intervals... More about our weather records


Wolfenbüttel Weather History for the Previous 24 Hours

Scroll right to see more
Time TempWeatherWind HumidityBarometerVisibility
8:20 PM
Thu, Oct 20
43 °FPassing clouds.2 mph93%29.92 "Hg4 mi
7:50 PM43 °FRain. Mostly cloudy.No wind93%29.92 "Hg6 mi
7:20 PM43 °FLight rain. Mostly cloudy.3 mph93%29.92 "Hg6 mi
6:50 PM43 °FLight rain. Partly cloudy.3 mph93%29.92 "HgN/A
6:20 PM43 °FLight rain. Mostly cloudy.No wind93%29.92 "Hg6 mi
5:50 PM43 °FLight rain. Mostly cloudy.No wind93%29.92 "HgN/A
5:20 PM43 °FRain showers. Cloudy.8 mph93%29.92 "Hg2 mi
4:50 PM48 °FBroken clouds.2 mph82%29.92 "HgN/A
4:20 PM48 °FBroken clouds.2 mph82%29.92 "HgN/A
3:50 PM48 °FMostly cloudy.1 mph82%29.92 "HgN/A
3:20 PM48 °FMostly cloudy.3 mph76%29.92 "HgN/A
2:50 PM48 °FMostly cloudy.2 mph76%29.92 "HgN/A
2:20 PM48 °FPartly sunny.2 mph82%29.92 "HgN/A
1:50 PM46 °FBroken clouds.3 mph87%29.92 "HgN/A
1:20 PM46 °FMostly cloudy.5 mph93%29.92 "HgN/A
12:50 PM45 °FMostly cloudy.6 mph93%29.92 "HgN/A
12:20 PM45 °FMostly cloudy.7 mph93%29.92 "Hg4 mi
11:50 AM45 °FLow clouds.7 mph93%29.92 "HgN/A
11:20 AM43 °FFog.6 mph100%29.92 "Hg2 mi
10:50 AM45 °FLow clouds.5 mph93%29.92 "HgN/A
10:20 AM45 °FLow clouds.7 mph93%29.89 "Hg5 mi
9:50 AM43 °FLow clouds.7 mph100%29.89 "HgN/A
9:20 AM43 °FDrizzle. Low clouds.7 mph100%29.89 "Hg3 mi
8:50 AM43 °FDrizzle. Fog.8 mph100%29.89 "Hg3 mi
8:20 AM43 °FDrizzle. Low clouds.9 mph93%29.86 "Hg4 mi
7:50 AM43 °FFog.9 mph93%29.86 "Hg3 mi
7:20 AM43 °FDrizzle. Fog.10 mph93%29.86 "Hg3 mi
6:50 AM43 °FLight rain. Fog.10 mph93%29.86 "Hg3 mi
9:50 PM
Wed, Oct 19
48 °FMostly cloudy.8 mph94%29.80 "HgN/A
9:20 PM46 °FOvercast.9 mph100%29.80 "HgN/A
Weather by CustomWeather, © 2016

See weather overviewHow to use our weather pages